Date String (YYYY-MM-DD hh:mm:ss) UTC,Instrument flags,Ambient pressure (hPa),Sample flow (lpm),Bypass flow (lpm),Sample temperature (°C),Ambient temperature (°C),ASC tube jacket temperature (°C),LED temperature (°C),Box temperature (°C),Sample RH (%),Span deviation,Mass concentration (μg/m³),Mass concentration (μg/m³),Mass concentration (μg/m³)
DateTimeUTC,F1_M11,P_M11,Q1_M11,Q2_M11,T1_M11,T2_M11,T3_M11,T4_M11,T5_M11,U1_M11,ZSPAN_M11,X0_M11,X2_M11,X1_M11
2022-09-01 01:00:00,,0830.6,4.99,0.00,29.6,26.4,00.0,38.3,31.3,23.2,0000.0,0009.18,0003.84,0003.10
2022-09-01 01:01:00,,0830.6,5.00,0.00,29.6,26.3,00.0,38.2,31.3,23.1,0000.0,0009.15,0003.93,0003.18
2022-09-01 01:02:00,,0830.6,5.01,0.00,29.5,26.5,00.0,38.2,31.1,23.0,0000.0,0009.43,0004.02,0003.23
2022-09-01 01:03:00,,0830.6,4.99,0.00,29.4,26.9,00.0,38.2,31.1,22.7,0000.0,0010.12,0004.09,0003.28
2022-09-01 01:04:00,,0830.6,5.01,0.00,29.4,27.2,00.0,38.1,31.2,22.4,0000.0,0010.27,0004.13,0003.32
2022-09-01 01:05:00,,0830.5,5.00,0.00,29.4,27.5,00.0,38.1,31.2,22.4,0000.0,0010.86,0004.12,0003.31
2022-09-01 01:06:00,,0830.6,5.01,0.00,29.4,27.8,00.0,38.1,31.3,22.6,0000.0,0011.34,0004.13,0003.32
2022-09-01 01:07:00,,0830.5,5.00,0.00,29.4,28.0,00.0,38.2,31.3,22.2,0000.0,0011.76,0004.11,0003.31
2022-09-01 01:08:00,,0830.6,4.98,0.00,29.5,28.2,00.0,38.2,31.4,22.5,0000.0,0011.67,0004.11,0003.31
2022-09-01 01:09:00,,0830.6,5.01,0.00,29.5,28.3,00.0,38.2,31.4,22.1,0000.0,0010.84,0004.04,0003.31
2022-09-01 01:10:00,,0830.6,5.01,0.00,29.5,28.4,00.0,38.2,31.5,22.4,0000.0,0010.42,0004.02,0003.32
2022-09-01 01:11:00,,0830.6,5.00,0.00,29.6,28.5,00.0,38.2,31.5,22.0,0000.0,0010.33,0004.00,0003.32
2022-09-01 01:12:00,,0830.6,5.00,0.00,29.6,28.7,00.0,38.3,31.6,21.9,0000.0,0010.24,0003.97,0003.31
2022-09-01 01:13:00,,0830.6,5.01,0.00,29.7,28.8,00.0,38.3,31.6,21.6,0000.0,0009.92,0003.89,0003.31
2022-09-01 01:14:00,,0830.6,4.98,0.00,29.7,28.8,00.0,38.3,31.7,21.1,0000.0,0009.46,0003.90,0003.32
2022-09-01 01:15:00,,0830.6,5.00,0.00,29.7,27.7,00.0,38.3,31.5,21.0,0000.0,0009.30,0003.88,0003.32
2022-09-01 01:16:00,,0830.6,4.99,0.00,29.6,26.4,00.0,38.3,31.4,20.9,0000.0,0008.82,0003.94,0003.34
2022-09-01 01:17:00,,0830.6,5.00,0.00,29.6,26.3,00.0,38.2,31.3,20.8,0000.0,0008.53,0003.97,0003.35
2022-09-01 01:18:00,,0830.6,5.01,0.00,29.5,26.5,00.0,38.2,31.2,22.2,0000.0,0008.41,0003.98,0003.38
2022-09-01 01:19:00,,0830.6,5.00,0.00,29.4,26.9,00.0,38.2,31.2,22.7,0000.0,0008.33,0004.00,0003.40
2022-09-01 01:20:00,,0830.6,4.99,0.00,29.4,27.2,00.0,38.2,31.2,23.9,0000.0,0009.05,0004.07,0003.44
2022-09-01 01:21:00,,0830.6,5.00,0.00,29.4,27.5,00.0,38.2,31.2,24.1,0000.0,0010.08,0004.14,0003.47
2022-09-01 01:22:00,,0830.6,5.00,0.00,29.4,27.8,00.0,38.2,31.3,24.3,0000.0,0010.31,0004.20,0003.51
2022-09-01 01:23:00,,0830.6,5.00,0.00,29.5,28.0,00.0,38.2,31.3,24.0,0000.0,0010.44,0004.27,0003.55
2022-09-01 01:24:00,,0830.6,5.00,0.00,29.5,28.2,00.0,38.2,31.4,24.1,0000.0,0011.21,0004.40,0003.60
2022-09-01 01:25:00,,0830.6,4.99,0.00,29.5,28.3,00.0,38.2,31.4,24.1,0000.0,0011.41,0004.47,0003.65
2022-09-01 01:26:00,,0830.6,5.01,0.00,29.5,28.5,00.0,38.2,31.5,23.9,0000.0,0011.55,0004.57,0003.71
2022-09-01 01:27:00,,0830.6,5.00,0.00,29.6,28.6,00.0,38.2,31.5,23.8,0000.0,0011.66,0004.67,0003.77
2022-09-01 01:28:00,,0830.6,4.99,0.00,29.6,28.7,00.0,38.2,31.6,23.8,0000.0,0011.73,0004.76,0003.83
2022-09-01 01:29:00,,0830.6,5.00,0.00,29.7,28.7,00.0,38.3,31.6,23.8,0000.0,0011.43,0004.82,0003.89
2022-09-01 01:30:00,,0830.6,5.01,0.00,29.7,28.8,00.0,38.3,31.7,23.9,0000.0,0011.45,0004.86,0003.93
2022-09-01 01:31:00,,0830.7,5.00,0.00,29.7,28.9,00.0,38.3,31.7,24.1,0000.0,0010.99,0004.90,0003.95
2022-09-01 01:32:00,,0830.6,5.00,0.00,29.8,28.6,00.0,38.4,31.7,24.2,0000.0,0010.33,0004.88,0003.97
2022-09-01 01:33:00,,0830.6,4.99,0.00,29.7,27.3,00.0,38.4,31.6,23.9,0000.0,0009.56,0004.90,0003.98
2022-09-01 01:34:00,,0830.5,5.00,0.00,29.7,26.9,00.0,38.3,31.6,23.8,0000.0,0009.56,0004.93,0004.00
2022-09-01 01:35:00,,0830.6,5.00,0.00,29.7,27.1,00.0,38.3,31.4,23.4,0000.0,0009.46,0004.96,0004.02
2022-09-01 01:36:00,,0830.6,4.99,0.00,29.6,27.3,00.0,38.3,31.4,24.0,0000.0,0009.69,0004.96,0004.03
2022-09-01 01:37:00,,0830.6,5.01,0.00,29.6,27.7,00.0,38.3,31.4,24.2,0000.0,0009.84,0005.01,0004.05
2022-09-01 01:38:00,,0830.6,5.00,0.00,29.6,27.9,00.0,38.3,31.4,24.3,0000.0,0010.18,0004.99,0004.05
2022-09-01 01:39:00,,0830.6,5.00,0.00,29.6,28.2,00.0,38.3,31.5,24.6,0000.0,0011.12,0004.94,0004.06
2022-09-01 01:40:00,,0830.6,5.01,0.00,29.7,28.3,00.0,38.3,31.5,24.8,0000.0,0012.01,0004.99,0004.07
2022-09-01 01:41:00,,0830.6,5.01,0.00,29.7,28.5,00.0,38.3,31.6,24.9,0000.0,0012.22,0004.99,0004.09
2022-09-01 01:42:00,,0830.6,4.99,0.00,29.7,28.6,00.0,38.4,31.6,25.0,0000.0,0012.51,0005.01,0004.10
2022-09-01 01:43:00,,0830.6,5.00,0.00,29.7,28.7,00.0,38.4,31.7,25.0,0000.0,0012.85,0005.03,0004.12
2022-09-01 01:44:00,,0830.6,5.01,0.00,29.8,28.8,00.0,38.4,31.7,24.9,0000.0,0013.29,0005.05,0004.15
2022-09-01 01:45:00,,0830.6,5.00,0.00,29.8,28.9,00.0,38.4,31.8,24.9,0000.0,0013.39,0005.07,0004.17
2022-09-01 01:46:00,,0830.6,4.98,0.00,29.8,29.0,00.0,38.5,31.7,25.0,0000.0,0013.55,0005.06,0004.18
2022-09-01 01:47:00,,0830.6,4.99,0.00,29.9,28.5,00.0,38.5,31.8,25.2,0000.0,0012.97,0005.04,0004.18
2022-09-01 01:48:00,,0830.6,5.00,0.00,29.8,27.2,00.0,38.5,31.6,25.0,0000.0,0013.17,0005.05,0004.19
2022-09-01 01:49:00,,0830.6,5.00,0.00,29.8,26.9,00.0,38.4,31.6,24.8,0000.0,0012.93,0005.06,0004.21
2022-09-01 01:50:00,,0830.6,4.99,0.00,29.7,27.1,00.0,38.4,31.5,23.1,0000.0,0012.98,0005.13,0004.23
2022-09-01 01:51:00,,0830.6,4.99,0.00,29.7,27.4,00.0,38.4,31.4,23.8,0000.0,0012.82,0005.09,0004.23
2022-09-01 01:52:00,,0830.5,5.01,0.00,29.7,27.7,00.0,38.4,31.5,23.4,0000.0,0013.12,0005.07,0004.23
2022-09-01 01:53:00,,0830.6,5.00,0.00,29.7,28.0,00.0,38.4,31.5,23.6,0000.0,0012.68,0005.03,0004.21
2022-09-01 01:54:00,,0830.5,5.01,0.00,29.7,28.2,00.0,38.4,31.5,23.6,0000.0,0012.44,0004.99,0004.18
2022-09-01 01:55:00,,0830.5,5.00,0.00,29.7,28.4,00.0,38.4,31.6,23.5,0000.0,0011.94,0004.98,0004.16
2022-09-01 01:56:00,,0830.6,4.98,0.00,29.8,28.5,00.0,38.4,31.6,23.7,0000.0,0012.10,0004.97,0004.13
2022-09-01 01:57:00,,0830.6,5.01,0.00,29.8,28.7,00.0,38.5,31.7,24.1,0000.0,0012.23,0004.96,0004.11
2022-09-01 01:58:00,,0830.6,5.00,0.00,29.8,28.8,00.0,38.5,31.7,24.5,0000.0,0012.54,0004.96,0004.08
2022-09-01 01:59:00,,0830.6,4.98,0.00,29.8,28.9,00.0,38.5,31.8,24.4,0000.0,0012.50,0004.93,0004.06
